Showing default

USA 271, 41745

Orbit data source: Space-Track

USA 271, 41745 is a payload satellite owned by USAF AFSPC (US) in GEO that was launched on Fri, 19 Aug 2016 UTC via a DELTA 4M+(4,2) launch vehicle from the Air Force Eastern Test Range (AFETR). Payload-class satellites include a variety of spacecraft equipped with specific instruments for various scientific and technological missions. These include communications satellites like Starlink; space stations such as the ISS; scientific satellites like the Hubble; Earth observation satellites from companies like Planet Labs, Umbra, and HawkEye 360; GPS; miniature CubeSats for education and research; and military/defense satellites.

Not visible in the next 10 days
Identifier
41745, 2016-052B
Orbit
GEO
Country
Flag of USUS
Related business
Manufacturer
OATK SSG
Mission
Operational Defense Classified
Bus & Motor
GEOSTAR-1, AOCS
Mass
500 kg wet, 500 kg dry
Launch date (UTC)
2016-08-19 (10 years ago)
Launch vehicle
DELTA 4M+(4,2)
Launch site
Air Force Eastern Test Range (AFETR)
Object type
Payload
Rocket body
Debris
Shape & HBR
Box + 2 Pan, 2.5 m
Radar Cross Section
7.621 m²

Expand to show TLE details & history
Last TLE update: 1 week ago

TLE from 1 week ago
0 USA 271
1 41745U 16052B   26066.76681257 -.00000351  00000-0  00000+0 0  9996
2 41745   3.9094  78.5496 0008233 150.8759 338.2620  1.00264971 26909
Epoch: 2026-03-07T18:24Z
TLE epoch observation values (Epoch: 2026-03-07T18:24:12.606Z)
Latitude
3.04798°
Longitude
126.20099°
Altitude
35,755.431 km
Speed
3.077 km/s
True Right ascension
13h 50m 56s
True Declination
3° 02' 42"
Sunlit
Object was in daylight at epoch
Visualization orbit readout
Latitude
Unknown
Longitude
Unknown
Altitude
Unknown
Speed
Unknown
Apparent Right ascension
Unknown
Apparent Declination
Unknown
Sunlit
N/A
Visualization observer readout
Local Sidereal Time
02:44:43
Azimuth
Unknown
Elevation
Unknown
Doppler factor
Unknown
Orbital elements
Apogee altitude
35,824.285 km
Perigee altitude
35,754.852 km
Semi-major axis
42,167.705 km
Eccentricity
0.00082
Inclination
3.9094°
RAAN
78.5496°
Arg. of periapsis
150.8759°
True anomaly
338.22703°
Mean anomaly
338.262°
Eccentric anomaly
338.24452°
Mean motion
0.25065 °/min
Orbital period
1,436.25 mins
BSTAR
0
Loading maneuver chart data...
Computing Atmospheric mass density...
Loading historical data...
Loading historical data...
Loading historical data...
Loading historical data...
Loading historical data...
Loading historical data...
Loading historical data...
Other satellites on launch #52 in the year 2016 (2016-08-19 UTC)

Documentation

Showing up to 5 results
|